Time,TemperatureF,DewpointF,PressureIn,WindDirection,WindDirectionDegrees,WindSpeedMPH,WindSpeedGustMPH,Humidity,HourlyPrecipIn,Conditions,Clouds,dailyrainin,SoftwareType,DateUTC
2013-03-26 00:00:00,36.2,25.6,29.65,NE,45,0.0,2.0,65,0.00,,---,0.00,VWS V14.01,2013-03-26 04:00:00,
2013-03-26 00:15:00,36.2,26.3,29.65,NNE,22,0.0,3.0,67,0.00,,---,0.00,VWS V14.01,2013-03-26 04:15:00,
2013-03-26 00:30:00,35.8,25.9,29.66,North,0,0.0,2.0,67,0.00,,---,0.00,VWS V14.01,2013-03-26 04:30:00,
2013-03-26 00:45:00,35.5,25.3,29.66,NE,45,0.0,2.0,66,0.00,,---,0.00,VWS V14.01,2013-03-26 04:45:00,
2013-03-26 01:00:00,35.4,25.5,29.66,ENE,68,1.0,4.0,67,0.00,,---,0.00,VWS V14.01,2013-03-26 05:00:00,
2013-03-26 01:15:00,35.6,25.0,29.66,NNE,22,2.0,7.0,65,0.00,,---,0.00,VWS V14.01,2013-03-26 05:15:00,
2013-03-26 01:30:00,35.4,24.1,29.66,NE,45,1.0,6.0,63,0.00,,---,0.00,VWS V14.01,2013-03-26 05:30:00,
2013-03-26 01:45:00,35.2,23.9,29.66,NNE,22,1.0,3.0,63,0.00,,---,0.00,VWS V14.01,2013-03-26 05:45:00,
2013-03-26 02:00:00,34.9,24.0,29.66,NNE,22,0.0,3.0,64,0.00,,---,0.00,VWS V14.01,2013-03-26 06:00:00,
2013-03-26 02:15:00,34.7,24.9,29.65,NE,45,0.0,3.0,67,0.00,,---,0.00,VWS V14.01,2013-03-26 06:15:00,
2013-03-26 02:30:00,34.5,24.0,29.66,North,0,1.0,4.0,65,0.00,,---,0.00,VWS V14.01,2013-03-26 06:30:00,
2013-03-26 02:45:00,34.2,25.1,29.66,ENE,68,0.0,3.0,69,0.00,,---,0.00,VWS V14.01,2013-03-26 06:45:00,
2013-03-26 03:00:00,34.1,24.0,29.66,NNE,22,0.0,2.0,66,0.00,,---,0.00,VWS V14.01,2013-03-26 07:00:00,
2013-03-26 03:15:00,34.0,23.9,29.65,NNE,22,0.0,0.0,66,0.00,,---,0.00,VWS V14.01,2013-03-26 07:15:00,
2013-03-26 03:30:00,33.9,24.1,29.66,NNE,22,0.0,0.0,67,0.00,,---,0.00,VWS V14.01,2013-03-26 07:30:00,
2013-03-26 03:45:00,33.8,24.0,29.66,NNE,22,0.0,3.0,67,0.00,,---,0.00,VWS V14.01,2013-03-26 07:45:00,
2013-03-26 04:00:00,33.7,24.3,29.66,NNE,22,1.0,4.0,68,0.00,,---,0.00,VWS V14.01,2013-03-26 08:00:00,
2013-03-26 04:15:00,33.6,24.2,29.66,NNE,22,1.0,6.0,68,0.00,,---,0.00,VWS V14.01,2013-03-26 08:15:00,
2013-03-26 04:30:00,33.5,24.1,29.67,North,0,1.0,5.0,68,0.00,,---,0.00,VWS V14.01,2013-03-26 08:30:00,
2013-03-26 04:45:00,33.3,23.9,29.67,North,0,1.0,4.0,68,0.00,,---,0.00,VWS V14.01,2013-03-26 08:45:00,
2013-03-26 05:00:00,33.2,24.1,29.67,NE,45,0.0,4.0,69,0.00,,---,0.00,VWS V14.01,2013-03-26 09:00:00,
2013-03-26 05:15:00,33.0,24.6,29.67,NE,45,1.0,3.0,71,0.00,,---,0.00,VWS V14.01,2013-03-26 09:15:00,
2013-03-26 05:30:00,32.8,25.1,29.68,NNE,22,1.0,5.0,73,0.00,,---,0.00,VWS V14.01,2013-03-26 09:30:00,
2013-03-26 05:45:00,32.6,25.2,29.68,NNE,22,1.0,4.0,74,0.00,,---,0.00,VWS V14.01,2013-03-26 09:45:00,
2013-03-26 06:00:00,32.4,25.0,29.69,NNE,22,0.0,4.0,74,0.00,,---,0.00,VWS V14.01,2013-03-26 10:00:00,
2013-03-26 06:15:00,32.3,24.6,29.69,NNE,22,0.0,4.0,73,0.00,,---,0.00,VWS V14.01,2013-03-26 10:15:00,
2013-03-26 06:30:00,32.1,24.8,29.70,NNE,22,0.0,0.0,74,0.00,,---,0.00,VWS V14.01,2013-03-26 10:30:00,
2013-03-26 06:45:00,31.0,24.3,29.70,NNE,22,0.0,0.0,76,0.00,,---,0.00,VWS V14.01,2013-03-26 10:45:00,
2013-03-26 07:00:00,30.1,24.1,29.70,NNE,22,0.0,0.0,78,0.00,,---,0.00,VWS V14.01,2013-03-26 11:00:00,
2013-03-26 07:15:00,29.9,23.6,29.70,NNE,22,0.0,0.0,77,0.00,,---,0.00,VWS V14.01,2013-03-26 11:15:00,
2013-03-26 07:30:00,30.0,23.4,29.71,NE,45,0.0,5.0,76,0.00,,---,0.00,VWS V14.01,2013-03-26 11:30:00,
2013-03-26 07:45:00,30.6,23.3,29.72,NE,45,1.0,5.0,74,0.00,,---,0.00,VWS V14.01,2013-03-26 11:45:00,
2013-03-26 08:00:00,30.8,23.5,29.72,NNE,22,1.0,4.0,74,0.00,,---,0.00,VWS V14.01,2013-03-26 12:00:00,
2013-03-26 08:15:00,31.4,23.4,29.73,NE,45,2.0,7.0,72,0.00,,---,0.00,VWS V14.01,2013-03-26 12:15:00,
2013-03-26 08:30:00,32.0,23.7,29.73,NNE,22,2.0,6.0,71,0.00,,---,0.00,VWS V14.01,2013-03-26 12:30:00,
2013-03-26 08:45:00,32.6,23.6,29.73,North,0,1.0,6.0,69,0.00,,---,0.00,VWS V14.01,2013-03-26 12:45:00,
2013-03-26 09:00:00,33.7,23.9,29.73,North,0,2.0,6.0,67,0.00,,---,0.00,VWS V14.01,2013-03-26 13:00:00,
2013-03-26 09:15:00,34.8,23.5,29.73,North,0,4.0,9.0,63,0.00,,---,0.00,VWS V14.01,2013-03-26 13:15:00,
2013-03-26 09:30:00,35.2,23.9,29.73,North,0,3.0,10.0,63,0.00,,---,0.00,VWS V14.01,2013-03-26 13:30:00,
2013-03-26 09:45:00,36.1,23.2,29.74,NNE,22,3.0,8.0,59,0.00,,---,0.00,VWS V14.01,2013-03-26 13:45:00,
2013-03-26 10:00:00,37.5,22.8,29.74,North,0,4.0,11.0,55,0.00,,---,0.00,VWS V14.01,2013-03-26 14:00:00,
2013-03-26 10:15:00,37.0,22.4,29.74,North,0,5.0,16.0,55,0.00,,---,0.00,VWS V14.01,2013-03-26 14:15:00,
2013-03-26 10:30:00,36.2,22.9,29.75,North,0,4.0,12.0,58,0.00,,---,0.00,VWS V14.01,2013-03-26 14:30:00,
2013-03-26 10:45:00,36.5,21.5,29.75,NE,45,5.0,13.0,54,0.00,,---,0.00,VWS V14.01,2013-03-26 14:45:00,
2013-03-26 11:00:00,37.1,22.0,29.75,North,0,5.0,14.0,54,0.00,,---,0.00,VWS V14.01,2013-03-26 15:00:00,
2013-03-26 11:15:00,38.6,24.3,29.75,North,0,2.0,9.0,56,0.00,,---,0.00,VWS V14.01,2013-03-26 15:15:00,
2013-03-26 11:30:00,37.8,23.5,29.76,North,0,4.0,11.0,56,0.00,,---,0.00,VWS V14.01,2013-03-26 15:30:00,
2013-03-26 11:45:00,38.2,23.5,29.76,NNE,22,5.0,12.0,55,0.00,,---,0.00,VWS V14.01,2013-03-26 15:45:00,
2013-03-26 12:00:00,39.8,22.7,29.75,North,0,3.0,9.0,50,0.00,,---,0.00,VWS V14.01,2013-03-26 16:00:00,
2013-03-26 12:15:00,39.9,21.8,29.75,North,0,3.0,9.0,48,0.00,,---,0.00,VWS V14.01,2013-03-26 16:15:00,
2013-03-26 12:30:00,41.1,23.4,29.75,North,0,3.0,10.0,49,0.00,,---,0.00,VWS V14.01,2013-03-26 16:30:00,
2013-03-26 12:45:00,41.4,22.2,29.75,NW,315,3.0,10.0,46,0.00,,---,0.00,VWS V14.01,2013-03-26 16:45:00,
2013-03-26 13:00:00,42.4,22.6,29.75,North,0,3.0,13.0,45,0.00,,---,0.00,VWS V14.01,2013-03-26 17:00:00,
2013-03-26 13:15:00,42.6,22.2,29.75,North,0,3.0,8.0,44,0.00,,---,0.00,VWS V14.01,2013-03-26 17:15:00,
2013-03-26 13:30:00,42.3,22.0,29.75,North,0,3.0,11.0,44,0.00,,---,0.00,VWS V14.01,2013-03-26 17:30:00,
2013-03-26 13:45:00,42.0,22.7,29.75,North,0,5.0,15.0,46,0.00,,---,0.00,VWS V14.01,2013-03-26 17:45:00,
2013-03-26 14:00:00,43.2,23.3,29.75,North,0,3.0,10.0,45,0.00,,---,0.00,VWS V14.01,2013-03-26 18:00:00,
2013-03-26 14:15:00,43.6,22.0,29.75,North,0,4.0,12.0,42,0.00,,---,0.00,VWS V14.01,2013-03-26 18:15:00,
2013-03-26 14:30:00,43.6,22.0,29.74,North,0,4.0,9.0,42,0.00,,---,0.00,VWS V14.01,2013-03-26 18:30:00,
2013-03-26 14:45:00,43.6,22.6,29.74,North,0,4.0,12.0,43,0.00,,---,0.00,VWS V14.01,2013-03-26 18:45:00,
2013-03-26 15:00:00,44.3,24.8,29.74,North,0,4.0,10.0,46,0.00,,---,0.00,VWS V14.01,2013-03-26 19:00:00,
2013-03-26 15:15:00,44.3,23.8,29.74,North,0,5.0,15.0,44,0.00,,---,0.00,VWS V14.01,2013-03-26 19:15:00,
2013-03-26 15:30:00,43.7,23.2,29.75,North,0,4.0,10.0,44,0.00,,---,0.00,VWS V14.01,2013-03-26 19:30:00,
2013-03-26 15:45:00,44.6,23.5,29.74,North,0,4.0,11.0,43,0.00,,---,0.00,VWS V14.01,2013-03-26 19:45:00,
2013-03-26 16:00:00,44.2,23.7,29.75,NNE,22,3.0,14.0,44,0.00,,---,0.00,VWS V14.01,2013-03-26 20:00:00,
2013-03-26 16:15:00,43.3,22.3,29.75,North,0,3.0,9.0,43,0.00,,---,0.00,VWS V14.01,2013-03-26 20:15:00,
2013-03-26 16:30:00,42.2,23.4,29.75,North,0,3.0,12.0,47,0.00,,---,0.00,VWS V14.01,2013-03-26 20:30:00,
2013-03-26 16:45:00,42.3,24.0,29.75,North,0,3.0,12.0,48,0.00,,---,0.00,VWS V14.01,2013-03-26 20:45:00,
2013-03-26 17:00:00,41.9,22.6,29.76,North,0,4.0,12.0,46,0.00,,---,0.00,VWS V14.01,2013-03-26 21:00:00,
2013-03-26 17:15:00,42.8,22.4,29.76,North,0,6.0,16.0,44,0.00,,---,0.00,VWS V14.01,2013-03-26 21:15:00,
2013-03-26 17:30:00,41.7,21.4,29.76,North,0,6.0,13.0,44,0.00,,---,0.00,VWS V14.01,2013-03-26 21:30:00,
2013-03-26 17:45:00,42.3,22.5,29.77,North,0,4.0,11.0,45,0.00,,---,0.00,VWS V14.01,2013-03-26 21:45:00,
2013-03-26 18:00:00,42.1,22.8,29.77,North,0,3.0,9.0,46,0.00,,---,0.00,VWS V14.01,2013-03-26 22:00:00,
2013-03-26 18:15:00,41.2,23.0,29.78,North,0,3.0,9.0,48,0.00,,---,0.00,VWS V14.01,2013-03-26 22:15:00,
2013-03-26 18:30:00,40.4,23.7,29.78,North,0,3.0,10.0,51,0.00,,---,0.00,VWS V14.01,2013-03-26 22:30:00,
2013-03-26 18:45:00,39.6,23.0,29.79,North,0,2.0,6.0,51,0.00,,---,0.00,VWS V14.01,2013-03-26 22:45:00,
2013-03-26 19:00:00,38.8,23.1,29.79,NNE,22,1.0,5.0,53,0.00,,---,0.00,VWS V14.01,2013-03-26 23:00:00,
2013-03-26 19:15:00,38.1,22.9,29.79,NNE,22,0.0,2.0,54,0.00,,---,0.00,VWS V14.01,2013-03-26 23:15:00,
2013-03-26 19:30:00,37.3,23.5,29.80,NNE,22,0.0,0.0,57,0.00,,---,0.00,VWS V14.01,2013-03-26 23:30:00,
2013-03-26 19:45:00,36.4,23.0,29.81,NE,45,0.0,1.0,58,0.00,,---,0.00,VWS V14.01,2013-03-26 23:45:00,
2013-03-26 20:00:00,35.9,23.0,29.81,NE,45,0.0,1.0,59,0.00,,---,0.00,VWS V14.01,2013-03-27 00:00:00,
2013-03-26 20:15:00,35.3,23.6,29.81,NE,45,0.0,0.0,62,0.00,,---,0.00,VWS V14.01,2013-03-27 00:15:00,
2013-03-26 20:30:00,33.7,24.6,29.82,NE,45,0.0,0.0,69,0.00,,---,0.00,VWS V14.01,2013-03-27 00:30:00,
2013-03-26 20:45:00,32.2,23.9,29.82,North,0,0.0,0.0,71,0.00,,---,0.00,VWS V14.01,2013-03-27 00:45:00,
2013-03-26 21:00:00,31.1,23.8,29.82,North,0,0.0,0.0,74,0.00,,---,0.00,VWS V14.01,2013-03-27 01:00:00,
2013-03-26 21:15:00,30.2,23.2,29.83,North,0,0.0,0.0,75,0.00,,---,0.00,VWS V14.01,2013-03-27 01:15:00,
2013-03-26 21:30:00,29.5,23.8,29.83,North,0,0.0,0.0,79,0.00,,---,0.00,VWS V14.01,2013-03-27 01:30:00,
2013-03-26 21:45:00,29.1,23.1,29.83,North,0,0.0,0.0,78,0.00,,---,0.00,VWS V14.01,2013-03-27 01:45:00,
2013-03-26 22:00:00,28.7,23.3,29.83,North,0,0.0,0.0,80,0.00,,---,0.00,VWS V14.01,2013-03-27 02:00:00,
2013-03-26 22:15:00,28.9,23.8,29.83,North,0,0.0,0.0,81,0.00,,---,0.00,VWS V14.01,2013-03-27 02:15:00,
2013-03-26 22:30:00,28.9,23.5,29.83,North,0,0.0,0.0,80,0.00,,---,0.00,VWS V14.01,2013-03-27 02:30:00,
2013-03-26 22:45:00,28.0,23.5,29.83,North,0,0.0,0.0,83,0.00,,---,0.00,VWS V14.01,2013-03-27 02:45:00,
2013-03-26 23:00:00,28.2,23.7,29.83,North,0,0.0,0.0,83,0.00,,---,0.00,VWS V14.01,2013-03-27 03:00:00,
2013-03-26 23:15:00,27.9,23.4,29.83,North,0,0.0,0.0,83,0.00,,---,0.00,VWS V14.01,2013-03-27 03:15:00,
2013-03-26 23:30:00,27.4,23.5,29.83,North,0,0.0,0.0,85,0.00,,---,0.00,VWS V14.01,2013-03-27 03:30:00,
2013-03-26 23:45:00,27.5,23.3,29.83,North,0,0.0,0.0,84,0.00,,---,0.00,VWS V14.01,2013-03-27 03:45:00,